Tampa, FL

1:32 PM EDT on October 18, 2017 (GMT -0400)
Tampa International

Weather History for KTPA - February, 2014

Change the Weather History Date:

Friday, February 21, 2014

  Actual Average Record
Temperature  
Mean Temperature 73 °F 64 °F  
Max Temperature 77 °F 73 °F 87 °F (1961)
Min Temperature 69 °F 55 °F 31 °F (1958)
Degree Days  
Heating Degree Days 0 3  
Month to date heating degree days 64 86  
Since 1 July heating degree days 382 451  
Cooling Degree Days 8 2  
Month to date cooling degree days 50 42  
Year to date cooling degree days 71 92  
Growing Degree Days 23 (Base 50)    
Moisture  
Dew Point 68 °F    
Average Humidity 87    
Maximum Humidity 100    
Minimum Humidity 73    
Precipitation  
Precipitation 0.03 in 0.10 in 2.06 in (1903)
Month to date precipitation 1.40 2.15  
Year to date precipitation 4.54 4.38  
Sea Level Pressure  
Sea Level Pressure 30.05 in    
Wind  
Wind Speed 9 mph (South)    
Max Wind Speed 16 mph    
Max Gust Speed 22 mph    
Visibility 7 miles    
Events Fog , Rain    
T = Trace of Precipitation, MM = Missing Value Source: NWS Daily Summary

Daily Weather History Graph

Daily Weather History Graph

Search for Another Location

Airport or City:

Trip Planner

Search our weather history database for the weather conditions in past years. The results will help you decide how hot, cold, wet, or windy it might be!

Date:

Astronomy

Feb. 21, 2014 Rise Set
Actual Time 7:02 AM EST 6:25 PM EST
Civil Twilight 6:38 AM EST 6:49 PM EST
Nautical Twilight 6:11 AM EST 7:16 PM EST
Astronomical Twilight 5:44 AM EST 7:43 PM EST
Moon No Moon Rise 10:59 AM EST (2/21)
Length of Visible Light 12h 10m
Length of Day
11h 22m
Waning Gibbous, 61% of the Moon is Illuminated
Feb 21
Waning Gibbous
Feb 22
Last Quarter
Mar 1
New
Mar 8
First Quarter
Mar 16
Full

Hourly Weather History & Observations

Time (EST) Temp. Dew Point Humidity Pressure Visibility Wind Dir Wind Speed Gust Speed Precip Events Conditions
12:53 AM 71.1 °F 64.9 °F 81% 30.07 in 10.0 mi SE 5.8 mph - N/A   Clear
1:53 AM 71.1 °F 66.0 °F 84% 30.05 in 10.0 mi SE 8.1 mph - N/A   Clear
2:53 AM 70.0 °F 66.0 °F 87% 30.05 in 10.0 mi SE 6.9 mph - N/A   Partly Cloudy
3:53 AM 69.1 °F 66.0 °F 90% 30.04 in 10.0 mi SSE 5.8 mph - N/A   Scattered Clouds
4:53 AM 69.1 °F 66.9 °F 93% 30.04 in 9.0 mi SSE 5.8 mph - N/A   Mostly Cloudy
5:07 AM 69.1 °F 66.9 °F 93% 30.04 in 9.0 mi SSE 6.9 mph - N/A   Overcast
5:53 AM 70.0 °F 66.9 °F 90% 30.05 in 9.0 mi SSE 5.8 mph - N/A   Overcast
6:53 AM 70.0 °F 68.0 °F 93% 30.06 in 9.0 mi SSE 10.4 mph 18.4 mph N/A   Overcast
7:19 AM 70.0 °F 69.1 °F 97% 30.06 in 6.0 mi South 8.1 mph - N/A   Overcast
7:53 AM 71.1 °F 69.1 °F 93% 30.06 in 6.0 mi South 9.2 mph - N/A   Overcast
8:10 AM 71.1 °F 69.1 °F 93% 30.06 in 7.0 mi South 10.4 mph - N/A   Overcast
8:53 AM 73.0 °F 70.0 °F 90% 30.06 in 9.0 mi South 11.5 mph - N/A   Mostly Cloudy
9:06 AM 73.9 °F 70.0 °F 87% 30.06 in 9.0 mi SSE 10.4 mph 17.3 mph N/A   Mostly Cloudy
9:53 AM 75.9 °F 70.0 °F 82% 30.06 in 10.0 mi South 11.5 mph - N/A   Mostly Cloudy
10:53 AM 75.0 °F 69.1 °F 82% 30.08 in 10.0 mi South 11.5 mph - N/A   Overcast
11:53 AM 75.9 °F 70.0 °F 82% 30.06 in 9.0 mi South 11.5 mph - N/A   Mostly Cloudy
12:29 PM 75.0 °F 70.0 °F 84% 30.06 in 9.0 mi South 12.7 mph - N/A   Overcast
12:53 PM 75.0 °F 70.0 °F 84% 30.06 in 9.0 mi SSW 15.0 mph - N/A   Overcast
1:53 PM 73.9 °F 69.1 °F 85% 30.04 in 9.0 mi South 12.7 mph - N/A   Overcast
2:53 PM 73.9 °F 69.1 °F 85% 30.03 in 9.0 mi South 11.5 mph - N/A   Overcast
3:53 PM 73.0 °F 69.1 °F 87% 30.04 in 8.0 mi SSW 10.4 mph - N/A   Overcast
4:53 PM 72.0 °F 70.0 °F 93% 30.01 in 8.0 mi South 15.0 mph - 0.01 in Rain Light Rain
5:53 PM 70.0 °F 66.0 °F 87% 30.03 in 9.0 mi WSW 6.9 mph - 0.00 in Rain Light Rain
6:53 PM 70.0 °F 66.0 °F 87% 30.02 in 10.0 mi South 8.1 mph - 0.02 in   Mostly Cloudy
7:18 PM 70.0 °F 66.9 °F 90% 30.03 in 10.0 mi SW 6.9 mph - N/A   Mostly Cloudy
7:53 PM 70.0 °F 68.0 °F 93% 30.02 in 8.0 mi SW 4.6 mph - N/A   Overcast
8:35 PM 70.0 °F 69.1 °F 97% 30.03 in 5.0 mi SSW 8.1 mph - N/A   Overcast
8:44 PM 70.0 °F 69.1 °F 97% 30.04 in 2.0 mi SW 6.9 mph - N/A   Overcast
8:53 PM 70.0 °F 69.1 °F 97% 30.04 in 2.0 mi SSW 4.6 mph - N/A   Overcast
9:51 PM 69.8 °F 69.8 °F 100% 30.05 in 1.0 mi SSW 5.8 mph - N/A   Overcast
9:53 PM 70.0 °F 70.0 °F 100% 30.05 in 1.0 mi SW 6.9 mph - N/A   Overcast
10:53 PM 70.0 °F 70.0 °F 100% 30.07 in 1.0 mi SSW 5.8 mph - N/A   Overcast
11:10 PM 70.0 °F 70.0 °F 100% 30.07 in 0.5 mi South 4.6 mph - N/A   Mist
11:18 PM 70.0 °F 70.0 °F 100% 30.07 in 0.5 mi South 6.9 mph - N/A   Mist
11:53 PM 70.0 °F 70.0 °F 100% 30.08 in 0.5 mi SSW 6.9 mph - N/A   Mist
11:55 PM 70.0 °F 70.0 °F 100% 30.08 in 0.2 mi SSW 5.8 mph - N/A Fog Fog